Find STARLINK-37856

NORAD ID: 799500936 Int'l Des: 2026-130P Constellation: starlink operational

当前视图

正在加载3D地球...

About STARLINK-37856

STARLINK-37856 (NORAD 799500936) is a starlink constellation satellite launched Jun 7, 2026

关于 STARLINK-37856

正在加载描述...

即将过境

Passes for default location (London). Set your location on the main map for personalized predictions.

高度历史

Loading altitude history...

两行轨道根数

1 99999C 2026130P 26163.12201389 .00513280 00000-0 770830-4 0 1634
2 99999 97.2792 182.8401 0011268 272.3054 178.7081 16.04304718 15
Epoch: Jun 12, 2026 • Age: 5 hours